Location: Chrome
(40.5765°N, 74.2163°W)
Time: 03:55:26
(UTC+00:00)

Cosmos 1862 Rocket - Pass Details

Date: 06 December 2019
Orbit: 604 x 633 km, 82.5° (Epoch: 20 January)

Event Time Altitude Azimuth Distance (km) Brightness Sun altitude
Rises 22:05:21 0° 164° (SSE) 2,848 7.1 -6.9°
Reaches altitude 10° 22:07:41 10° 155° (SSE) 1,952 6.1 -7.3°
Maximum altitude 22:11:35 34° 91° (E) 1,020 4.2 -8.0°
Drops below altitude 10° 22:15:31 10° 27° (NNE) 1,980 5.7 -8.6°
Sets 22:17:54 0° 18° (NNE) 2,895 6.6 -9.1°
